H1 CPF 2 NER 2021 10 22 9 295 01 glonass122 H2 1004103 9122 37139 2021 10 22 0 0 0 2021 10 25 23 45 0 900 1 1 0 0 0 1 H9 10 0 59509 0.00000 0 -19139066.178 -5106558.950 -16007408.402 10 0 59509 900.00000 0 -20659546.610 -6120261.497 -13562430.222 10 0 59509 1800.00000 0 -21979648.924 -6853882.144 -10852523.977 10 0 59509 2700.00000 0 -23043270.818 -7326137.498 -7930441.130 10 0 59509 3600.00000 0 -23801423.575 -7566641.987 -4853197.875 10 0 59509 4500.00000 0 -24214342.226 -7614398.521 -1680946.844 10 0 59509 5400.00000 0 -24253226.284 -7515886.663 1524222.338 10 0 59509 6300.00000 0 -23901533.898 -7322831.179 4699527.795 10 0 59509 7200.00000 0 -23155771.624 -7089748.474 7782757.852 10 0 59509 8100.00000 0 -22025744.381 -6871378.653 10713523.044 10 0 59509 9000.00000 0 -20534254.011 -6720116.182 13434469.709 10 0 59509 9900.00000 0 -18716259.488 -6683552.071 15892428.095 10 0 59509 10800.00000 0 -16617535.627 -6802235.253 18039469.991 10 0 59509 11700.00000 0 -14292889.039 -7107750.580 19833853.449 10 0 59509 12600.00000 0 -11804009.244 -7621196.286 21240835.267 10 0 59509 13500.00000 0 -9217048.026 -8352125.580 22233335.668 10 0 59509 14400.00000 0 -6600031.014 -9297996.253 22792443.329 10 0 59509 15300.00000 0 -4020211.613 -10444149.674 22907752.924 10 0 59509 16200.00000 0 -1541478.596 -11764317.666 22577531.180 10 0 59509 17100.00000 0 778075.040 -13221633.206 21808711.168 10 0 59509 18000.00000 0 2888322.211 -14770099.773 20616718.034 10 0 59509 18900.00000 0 4748923.418 -16356455.469 19025132.489 10 0 59509 19800.00000 0 6330727.892 -17922352.159 17065201.219 10 0 59509 20700.00000 0 7616700.197 -19406757.573 14775205.919 10 0 59509 21600.00000 0 8602338.376 -20748480.010 12199704.709 10 0 59509 22500.00000 0 9295570.724 -21888711.101 9388661.549 10 0 59509 23400.00000 0 9716139.459 -22773482.039 6396480.793 10 0 59509 24300.00000 0 9894500.308 -23355933.016 3280965.128 10 0 59509 25200.00000 0 9870286.242 -23598303.604 102216.024 10 0 59509 26100.00000 0 9690400.750 -23473563.498 -3078503.551 10 0 59509 27000.00000 0 9406820.598 -22966617.793 -6199924.140 10 0 59509 27900.00000 0 9074199.275 -22075038.052 -9201922.567 10 0 59509 28800.00000 0 8747369.982 -20809289.464 -12026652.541 10 0 59509 29700.00000 0 8478850.912 -19192444.425 -14619633.825 10 0 59509 30600.00000 0 8316455.384 -17259393.195 -16930781.304 10 0 59509 31500.00000 0 8301105.300 -15055582.364 -18915356.075 10 0 59509 32400.00000 0 8464938.496 -12635330.581 -20534821.906 10 0 59509 33300.00000 0 8829789.095 -10059787.965 -21757591.553 10 0 59509 34200.00000 0 9406105.368 -7394620.277 -22559648.821 10 0 59509 35100.00000 0 10192352.357 -4707510.304 -22925034.003 10 0 59509 36000.00000 0 11174927.244 -2065576.952 -22846182.051 10 0 59509 36900.00000 0 12328594.685 467183.132 -22324104.970 10 0 59509 37800.00000 0 13617428.047 2832326.657 -21368412.325 10 0 59509 38700.00000 0 14996221.336 4979166.792 -19997166.312 10 0 59509 39600.00000 0 16412316.383 6866655.817 -18236570.907 10 0 59509 40500.00000 0 17807771.658 8464867.258 -16120497.794 10 0 59509 41400.00000 0 19121783.515 9756013.361 -13689855.247 10 0 59509 42300.00000 0 20293258.551 10734952.743 -10991809.885 10 0 59509 43200.00000 0 21263427.983 11409164.585 -8078874.817 10 0 59509 44100.00000 0 21978391.711 11798188.571 -5007881.374 10 0 59509 45000.00000 0 22391481.583 11932553.163 -1838854.988 10 0 59509 45900.00000 0 22465340.304 11852237.562 1366181.306 10 0 59509 46800.00000 0 22173624.233 11604733.663 4544449.982 10 0 59509 47700.00000 0 21502254.449 11242792.437 7633681.248 10 0 59509 48600.00000 0 20450160.380 10821953.527 10573366.248 10 0 59509 49500.00000 0 19029482.682 10397966.644 13305973.221 10 0 59509 50400.00000 0 17265226.267 10024218.036 15778099.506 10 0 59509 51300.00000 0 15194378.663 9749274.839 17941534.248 10 0 59509 52200.00000 0 12864532.480 9614654.254 19754209.240 10 0 59509 53100.00000 0 10332072.342 9652913.992 21181018.394 10 0 59509 54000.00000 0 7660005.081 9886145.445 22194490.071 10 0 59509 54900.00000 0 4915526.745 10324932.837 22775300.241 10 0 59509 55800.00000 0 2167430.373 10967820.664 22912618.426 10 0 59509 56700.00000 0 -516535.947 11801309.506 22604282.249 10 0 59509 57600.00000 0 -3072250.394 12800377.458 21856800.147 10 0 59509 58500.00000 0 -5441631.519 13929502.159 20685185.259 10 0 59509 59400.00000 0 -7574786.852 15144137.664 19112626.706 10 0 59509 60300.00000 0 -9431809.911 16392581.834 17170007.286 10 0 59509 61200.00000 0 -10984154.698 17618154.383 14895279.130 10 0 59509 62100.00000 0 -12215535.017 18761593.618 12332711.059 10 0 59509 63000.00000 0 -13122315.686 19763571.797 9532023.090 10 0 59509 63900.00000 0 -13713383.505 20567224.872 6547425.217 10 0 59509 64800.00000 0 -14009507.074 21120592.568 3436578.653 10 0 59509 65700.00000 0 -14042214.917 21378868.966 259498.587 10 0 59509 66600.00000 0 -13852240.522 21306371.864 -2922581.740 10 0 59509 67500.00000 0 -13487600.002 20878150.812 -6048365.696 10 0 59509 68400.00000 0 -13001382.442 20081168.432 -9057646.610 10 0 59509 69300.00000 0 -12449344.223 18915006.727 -11892439.941 10 0 59509 70200.00000 0 -11887406.237 17392069.069 -14498074.912 10 0 59509 71100.00000 0 -11369156.722 15537268.497 -16824226.923 10 0 59509 72000.00000 0 -10943462.241 13387213.438 -18825872.855 10 0 59509 72900.00000 0 -10652285.223 10988921.881 -20464152.510 10 0 59509 73800.00000 0 -10528798.526 8398113.872 -21707120.661 10 0 59509 74700.00000 0 -10595875.945 5677149.391 -22530375.499 10 0 59509 75600.00000 0 -10865022.928 2892693.139 -22917551.033 10 0 59509 76500.00000 0 -11335794.357 113199.435 -22860662.713 10 0 59509 77400.00000 0 -11995726.748 -2593681.409 -22360297.644 10 0 59509 78300.00000 0 -12820791.365 -5163669.769 -21425643.174 10 0 59509 79200.00000 0 -13776353.181 -7538290.881 -20074350.170 10 0 59509 80100.00000 0 -14818599.221 -9667075.118 -18332230.338 10 0 59509 81000.00000 0 -15896379.609 -11509431.626 -16232790.140 10 0 59509 81900.00000 0 -16953386.215 -13036115.168 -13816607.273 10 0 59509 82800.00000 0 -17930578.360 -14230222.265 -11130559.459 10 0 59509 83700.00000 0 -18768753.102 -15087672.334 -8226918.889 10 0 59509 84600.00000 0 -19411150.133 -15617151.292 -5162329.265 10 0 59509 85500.00000 0 -19805978.504 -15839518.315 -1996685.944 10 0 59510 0.00000 0 -19908754.817 -15786700.206 1208057.300 10 0 59510 900.00000 0 -19684349.996 -15500120.498 4389130.879 10 0 59510 1800.00000 0 -19108653.992 -15028731.553 7484209.613 10 0 59510 2700.00000 0 -18169784.765 -14426735.677 10432668.241 10 0 59510 3600.00000 0 -16868787.603 -13751095.258 13176799.798 10 0 59510 4500.00000 0 -15219793.903 -13058941.351 15662971.426 10 0 59510 5400.00000 0 -13249632.469 -12404994.261 17842692.081 10 0 59510 6300.00000 0 -10996910.545 -11839108.623 19673569.411 10 0 59510 7200.00000 0 -8510605.142 -11404049.229 21120136.150 10 0 59510 8100.00000 0 -5848226.165 -11133592.900 22154530.054 10 0 59510 9000.00000 0 -3073630.877 -11051036.516 22757015.180 10 0 59510 9900.00000 0 -254583.543 -11168172.960 22916336.230 10 0 59510 10800.00000 0 2539836.178 -11484775.840 22629901.632 10 0 59510 11700.00000 0 5241867.243 -11988611.716 21903794.702 10 0 59510 12600.00000 0 7787634.160 -12655975.914 20752615.738 10 0 59510 13500.00000 0 10119541.543 -13452726.046 19199161.127 10 0 59510 14400.00000 0 12188399.252 -14335766.813 17273948.316 10 0 59510 15300.00000 0 13955193.107 -15254921.399 15014598.131 10 0 59510 16200.00000 0 15392431.651 -16155109.441 12465088.045 10 0 59510 17100.00000 0 16485017.249 -16978739.691 9674891.796 10 0 59510 18000.00000 0 17230609.498 -17668217.456 6698022.403 10 0 59510 18900.00000 0 17639469.682 -18168462.943 3591996.746 10 0 59510 19800.00000 0 17733795.915 -18429336.844 416740.705 10 0 59510 20700.00000 0 17546578.920 -18407873.757 -2766545.324 10 0 59510 21600.00000 0 17120027.431 -18070232.158 -5896540.640 10 0 59510 22500.00000 0 16503629.146 -17393281.259 -8912958.118 10 0 59510 23400.00000 0 15751927.456 -16365759.747 -11757677.850 10 0 59510 24300.00000 0 14922105.340 -14988958.491 -14375841.200 10 0 59510 25200.00000 0 14071475.411 -13276898.200 -16716886.540 10 0 59510 26100.00000 0 13254978.832 -11255993.102 -18735508.703 10 0 59510 27000.00000 0 12522795.690 -8964212.079 -20392525.392 10 0 59510 27900.00000 0 11918165.171 -6449768.676 -21655634.908 10 0 59510 28800.00000 0 11475505.980 -3769390.530 -22500050.958 10 0 59510 29700.00000 0 11218915.753 -986235.767 -22909001.988 10 0 59510 30600.00000 0 11161113.474 1832461.307 -22874084.234 10 0 59510 31500.00000 0 11302871.343 4617921.072 -22395459.774 10 0 59510 32400.00000 0 11632962.836 7302423.871 -21481893.194 10 0 59510 33300.00000 0 12128632.628 9821883.258 -20150623.094 10 0 59510 34200.00000 0 12756572.238 12118280.752 -18427067.599 10 0 59510 35100.00000 0 13474363.757 14141860.177 -16344366.258 10 0 59510 36000.00000 0 14232333.530 15852988.457 -13942764.152 10 0 59510 36900.00000 0 14975739.367 17223602.675 -11268847.717 10 0 59510 37800.00000 0 15647199.374 18238180.078 -8374645.499 10 0 59510 38700.00000 0 16189258.885 18894187.654 -5316610.581 10 0 59510 39600.00000 0 16546984.766 19201990.081 -2154505.012 10 0 59510 40500.00000 0 16670474.091 19184218.600 1049790.612 10 0 59510 41400.00000 0 16517167.073 18874627.161 4233516.847 10 0 59510 42300.00000 0 16053862.242 18316485.084 7334296.981 10 0 59510 43200.00000 0 15258344.632 17560576.332 10291392.425 10 0 59510 44100.00000 0 14120554.892 16662893.085 13046923.823 10 0 59510 45000.00000 0 12643247.666 15682124.877 15547030.618 10 0 59510 45900.00000 0 10842110.378 14677053.349 17742943.731 10 0 59510 46800.00000 0 8745337.511 13703966.336 19591948.463 10 0 59510 47700.00000 0 6392679.527 12814203.402 21058217.808 10 0 59510 48600.00000 0 3834008.344 12051938.240 22113499.983 10 0 59510 49500.00000 0 1127461.861 11452292.023 22737647.806 10 0 59510 50400.00000 0 -1662752.328 11039856.439 22918981.437 10 0 59510 51300.00000 0 -4468800.260 10827686.657 22654479.949 10 0 59510 52200.00000 0 -7221808.800 10816803.649 21949800.921 10 0 59510 53100.00000 0 -9854488.441 10996223.267 20819130.738 10 0 59510 54000.00000 0 -12303683.385 11343507.038 19284871.509 10 0 59510 54900.00000 0 -14512744.622 11825807.955 17377173.383 10 0 59510 55800.00000 0 -16433630.094 12401364.186 15133323.573 10 0 59510 56700.00000 0 -18028648.175 13021375.678 12597005.621 10 0 59510 57600.00000 0 -19271775.978 13632183.470 9817444.224 10 0 59510 58500.00000 0 -20149501.685 14177659.876 6848452.587 10 0 59510 59400.00000 0 -20661159.761 14601709.777 3747400.405 10 0 59510 60300.00000 0 -20818748.474 14850779.431 574121.461 10 0 59510 61200.00000 0 -20646239.832 14876269.477 -2610219.415 10 0 59510 62100.00000 0 -20178412.401 14636753.052 -5744280.073 10 0 59510 63000.00000 0 -19459256.255 14099908.136 -8767695.443 10 0 59510 63900.00000 0 -18540016.234 13244084.807 -11622212.633 10 0 59510 64800.00000 0 -17476953.931 12059442.753 -14252787.370 10 0 59510 65700.00000 0 -16328919.892 10548611.433 -16608623.024 10 0 59510 66600.00000 0 -15154835.142 8726844.285 -18644134.176 10 0 59510 67500.00000 0 -14011184.834 6621658.354 -20319817.962 10 0 59510 68400.00000 0 -12949626.633 4271971.201 -21603017.448 10 0 59510 69300.00000 0 -12014812.272 1726767.128 -22468562.794 10 0 59510 70200.00000 0 -11242512.628 -956656.197 -22899277.488 10 0 59510 71100.00000 0 -10658124.994 -3714792.373 -22886338.843 10 0 59510 72000.00000 0 -10275626.326 -6480298.818 -22429483.842 10 0 59510 72900.00000 0 -10097018.442 -9184542.207 -21537053.890 10 0 59510 73800.00000 0 -10112291.326 -11760213.554 -20225874.533 10 0 59510 74700.00000 0 -10299909.321 -14143905.389 -18520969.157 10 0 59510 75600.00000 0 -10627803.008 -16278543.838 -16455108.908 10 0 59510 76500.00000 0 -11054827.805 -18115573.023 -14068204.440 10 0 59510 77400.00000 0 -11532629.863 -19616798.356 -11406548.849 10 0 59510 78300.00000 0 -12007841.378 -20755808.841 -8521924.771 10 0 59510 79200.00000 0 -12424512.223 -21518915.765 -5470592.254 10 0 59510 80100.00000 0 -12726673.361 -21905565.542 -2312177.525 10 0 59510 81000.00000 0 -12860920.726 -21928207.258 891514.319 10 0 59510 81900.00000 0 -12778906.446 -21611619.395 4077737.225 10 0 59510 82800.00000 0 -12439627.730 -20991724.233 7184065.385 10 0 59510 83700.00000 0 -11811412.346 -20113941.339 10149649.639 10 0 59510 84600.00000 0 -10873512.858 -19031152.172 12916440.976 10 0 59510 85500.00000 0 -9617239.365 -17801365.103 15430353.798 10 0 59511 0.00000 0 -8046581.163 -16485183.334 17642343.305 10 0 59511 900.00000 0 -6178289.587 -15143185.597 19509375.118 10 0 59511 1800.00000 0 -4041421.237 -13833335.150 20995264.229 10 0 59511 2700.00000 0 -1676359.449 -12608526.246 22071370.904 10 0 59511 3600.00000 0 866640.818 -11514374.271 22717137.921 10 0 59511 4500.00000 0 3529322.131 -10587341.695 22920461.676 10 0 59511 5400.00000 0 6247627.239 -9853277.206 22677892.263 10 0 59511 6300.00000 0 8954141.624 -9326426.738 21994661.517 10 0 59511 7200.00000 0 11580673.084 -9008954.445 20884541.533 10 0 59511 8100.00000 0 14060860.968 -8890989.682 19369539.437 10 0 59511 9000.00000 0 16332707.622 -8951193.936 17479437.023 10 0 59511 9900.00000 0 18340928.711 -9157820.099 15251186.506 10 0 59511 10800.00000 0 20039027.665 -9470216.485 12728175.768 10 0 59511 11700.00000 0 21391011.476 -9840710.142 9959378.388 10 0 59511 12600.00000 0 22372680.243 -10216789.181 6998405.329 10 0 59511 13500.00000 0 22972440.589 -10543492.220 3902476.356 10 0 59511 14400.00000 0 23191612.551 -10765905.385 731330.140 10 0 59511 15300.00000 0 23044219.886 -10831663.458 -2453907.247 10 0 59511 16200.00000 0 22556274.533 -10693352.148 -5591875.477 10 0 59511 17100.00000 0 21764585.996 -10310712.710 -8622134.771 10 0 59511 18000.00000 0 20715145.228 -9652558.361 -11486302.367 10 0 59511 18900.00000 0 19461149.432 -8698323.478 -14129151.279 10 0 59511 19800.00000 0 18060748.335 -7439181.196 -16499652.542 10 0 59511 20700.00000 0 16574603.629 -5878682.185 -18551942.879 10 0 59511 21600.00000 0 15063360.766 -4032886.265 -20246200.944 10 0 59511 22500.00000 0 13585136.073 -1929978.664 -21549416.350 10 0 59511 23400.00000 0 12193121.941 390616.688 -22436037.132 10 0 59511 24300.00000 0 10933408.595 2879594.211 -22888482.903 10 0 59511 25200.00000 0 9843112.848 5479542.221 -22897512.728 10 0 59511 26100.00000 0 8948892.480 8127067.599 -22462438.776 10 0 59511 27000.00000 0 8265909.752 10755185.290 -21591179.132 10 0 59511 27900.00000 0 7797289.654 13295876.413 -20300145.722 10 0 59511 28800.00000 0 7534098.388 15682710.515 -18613966.208 10 0 59511 29700.00000 0 7455845.961 17853423.449 -16565041.915 10 0 59511 30600.00000 0 7531494.535 19752342.825 -14192947.233 10 0 59511 31500.00000 0 7720932.344 21332557.844 -11543679.661 10 0 59511 32400.00000 0 7976852.257 22557740.141 -8668773.281 10 0 59511 33300.00000 0 8246955.829 23403536.148 -5624292.109 10 0 59511 34200.00000 0 8476388.477 23858469.305 -2469723.267 10 0 59511 35100.00000 0 8610300.378 23924311.450 733207.125 10 0 59511 36000.00000 0 8596421.248 23615905.820 3921769.967 10 0 59511 36900.00000 0 8387535.898 22960448.308 7033493.877 10 0 59511 37800.00000 0 7943751.404 21996257.794 10007422.501 10 0 59511 38700.00000 0 7234455.797 20771089.132 12785340.314 10 0 59511 39600.00000 0 6239881.950 19340062.713 15312939.516 10 0 59511 40500.00000 0 4952208.054 17763301.397 17540902.444 10 0 59511 41400.00000 0 3376146.836 16103378.077 19425876.364 10 0 59511 42300.00000 0 1528998.582 14422684.882 20931320.423 10 0 59511 43200.00000 0 -559833.423 12780837.493 22028208.273 10 0 59511 44100.00000 0 -2849842.923 11232225.412 22695573.549 10 0 59511 45000.00000 0 -5290892.021 9823811.578 22920889.349 10 0 59511 45900.00000 0 -7825089.884 8593272.745 22700276.782 10 0 59511 46800.00000 0 -10388998.292 7567556.385 22038541.434 10 0 59511 47700.00000 0 -12916070.420 6761911.399 20949040.108 10 0 59511 48600.00000 0 -15339220.617 6179429.205 19453383.435 10 0 59511 49500.00000 0 -17593418.500 5811110.046 17580982.886 10 0 59511 50400.00000 0 -19618200.646 5636447.485 15368453.287 10 0 59511 51300.00000 0 -21359997.634 5624502.650 12858884.145 10 0 59511 52200.00000 0 -22774182.610 5735420.084 10100994.963 10 0 59511 53100.00000 0 -23826759.406 5922319.454 7148191.384 10 0 59511 54000.00000 0 -24495623.597 6133482.644 4057540.137 10 0 59511 54900.00000 0 -24771347.318 6314744.348 888681.717 10 0 59511 55800.00000 0 -24657458.020 6411986.721 -2297299.516 10 0 59511 56700.00000 0 -24170201.748 6373634.842 -5439027.885 10 0 59511 57600.00000 0 -23337802.040 6153050.184 -8475991.584 10 0 59511 58500.00000 0 -22199245.589 5710723.608 -11349680.500 10 0 59511 59400.00000 0 -20802644.544 5016177.553 -14004687.264 10 0 59511 60300.00000 0 -19203242.078 4049498.659 -16389752.690 10 0 59511 61200.00000 0 -17461142.021 2802436.776 -18458737.492 10 0 59511 62100.00000 0 -15638854.459 1279023.410 -20171503.374 10 0 59511 63000.00000 0 -13798756.655 -504318.378 -21494687.670 10 0 59511 63900.00000 0 -12000572.550 -2519180.299 -22402357.078 10 0 59511 64800.00000 0 -10298973.730 -4726078.442 -22876527.717 10 0 59511 65700.00000 0 -8741400.581 -7075832.820 -22907540.400 10 0 59511 66600.00000 0 -7366194.162 -9511363.994 -22494282.084 10 0 59511 67500.00000 0 -6201117.395 -11969836.437 -21644246.783 10 0 59511 68400.00000 0 -5262328.890 -14385063.087 -20373431.707 10 0 59511 69300.00000 0 -4553854.652 -16690073.579 -18706067.396 10 0 59511 70200.00000 0 -4067582.428 -18819740.527 -16674183.682 10 0 59511 71100.00000 0 -3783781.663 -20713354.325 -14317016.798 10 0 59511 72000.00000 0 -3672129.565 -22317037.505 -11680266.566 10 0 59511 72900.00000 0 -3693201.690 -23585895.287 -8815216.311 10 0 59511 73800.00000 0 -3800364.741 -24485809.021 -5777731.720 10 0 59511 74700.00000 0 -3941991.036 -24994793.733 -2627158.461 10 0 59511 75600.00000 0 -4063899.120 -25103859.418 574858.700 10 0 59511 76500.00000 0 -4111914.217 -24817337.161 3765610.027 10 0 59511 77400.00000 0 -4034436.302 -24152654.607 6882580.995 10 0 59511 78300.00000 0 -3784902.693 -23139569.821 9864710.506 10 0 59511 79200.00000 0 -3324036.602 -21818896.649 12653618.950 10 0 59511 80100.00000 0 -2621782.587 -20240777.339 15194778.706 10 0 59511 81000.00000 0 -1658843.978 -18462578.168 17438601.327 10 0 59511 81900.00000 0 -427755.322 -16546500.100 19341418.194 10 0 59511 82800.00000 0 1066556.188 -14557008.543 20866334.230 10 0 59511 83700.00000 0 2806743.610 -12558193.297 21983937.995 10 0 59511 84600.00000 0 4763547.311 -10611171.722 22672855.179 10 0 59511 85500.00000 0 6896812.835 -8771645.191 22920136.407 10 0 59512 0.00000 0 9156974.370 -7087711.034 22721474.316 10 0 59512 900.00000 0 11486940.681 -5598019.111 22081248.343 10 0 59512 1800.00000 0 13824299.635 -4330349.588 21012399.793 10 0 59512 2700.00000 0 16103752.155 -3300664.561 19536142.302 10 0 59512 3600.00000 0 18259670.690 -2512671.140 17681516.212 10 0 59512 4500.00000 0 20228677.352 -1957908.742 15484797.856 10 0 59512 5400.00000 0 21952135.635 -1616352.693 12988776.954 10 0 59512 6300.00000 0 23378454.304 -1457505.042 10241917.209 10 0 59512 7200.00000 0 24465110.342 -1441923.901 7297416.888 10 0 59512 8100.00000 0 25180309.965 -1523125.260 4212187.311 10 0 59512 9000.00000 0 25504221.708 -1649776.610 1045768.141 10 0 59512 9900.00000 0 25429733.095 -1768090.561 -2140800.854 10 0 59512 10800.00000 0 24962701.691 -1824318.980 -5286131.668 10 0 59512 11700.00000 0 24121691.566 -1767244.633 -8329643.527 10 0 59512 12600.00000 0 22937206.668 -1550567.681 -11212701.972 10 0 59512 13500.00000 0 21450452.608 -1135088.767 -13879722.122 10 0 59512 14400.00000 0 19711676.970 -490598.554 -16279217.244 10 0 59512 15300.00000 0 17778155.055 402604.750 -18364774.501 10 0 59512 16200.00000 0 15711902.096 1552633.715 -20095940.867 10 0 59512 17100.00000 0 13577204.062 2955412.514 -21439003.372 10 0 59512 18000.00000 0 11438066.797 4594587.742 -22367649.123 10 0 59512 18900.00000 0 9355686.980 6441956.454 -22863492.211 10 0 59512 19800.00000 0 7386048.149 8458397.791 -22916456.361 10 0 59512 20700.00000 0 5577740.838 10595273.875 -22525004.151 10 0 59512 21600.00000 0 3970097.494 12796246.185 -21696205.950 10 0 59512 22500.00000 0 2591720.833 14999435.794 -20445644.267 10 0 59512 23400.00000 0 1459468.865 17139840.587 -18797152.060 10 0 59512 24300.00000 0 577941.294 19151910.684 -16782386.738 10 0 59512 25200.00000 0 -60508.587 20972175.232 -14440244.943 10 0 59512 26100.00000 0 -475234.541 22541809.950 -11816126.917 10 0 59512 27000.00000 0 -696251.362 23809035.996 -8961062.857 10 0 59512 27900.00000 0 -762725.176 24731246.579 -5930717.344 10 0 59512 28800.00000 0 -721063.847 25276768.433 -2784291.458 10 0 59512 29700.00000 0 -622689.428 25426180.405 416654.794 10 0 59512 30600.00000 0 -521589.424 25173130.362 3609434.612 10 0 59512 31500.00000 0 -471753.907 24524613.431 6731493.952 10 0 59512 32400.00000 0 -524611.202 23500698.491 9721670.536 10 0 59512 33300.00000 0 -726575.061 22133714.275 12521424.102 10 0 59512 34200.00000 0 -1116811.318 20466930.574 15076010.391 10 0 59512 35100.00000 0 -1725322.042 18552792.320 17335573.085 10 0 59512 36000.00000 0 -2571430.734 16450783.861 19256130.252 10 0 59512 36900.00000 0 -3662733.924 14225016.583 20800434.803 10 0 59512 37800.00000 0 -4994563.569 11941644.372 21938692.019 10 0 59512 38700.00000 0 -6549982.017 9666217.882 22649121.026 10 0 59512 39600.00000 0 -8300307.922 7461090.113 22918350.899 10 0 59512 40500.00000 0 -10206148.742 5382982.274 22741646.148 10 0 59512 41400.00000 0 -12218894.038 3480810.679 22122960.019 10 0 59512 42300.00000 0 -14282604.707 1793863.337 21074817.672 10 0 59512 43200.00000 0 -16336217.381 350398.968 19618034.525 10 0 59512 44100.00000 0 -18315970.864 -833277.243 17781278.039 10 0 59512 45000.00000 0 -20157953.148 -1753227.118 15600483.818 10 0 59512 45900.00000 0 -21800663.559 -2417769.636 13118139.134 10 0 59512 46800.00000 0 -23187484.865 -2846856.690 10382448.908 10 0 59512 47700.00000 0 -24268964.583 -3070964.181 7446400.829 10 0 59512 48600.00000 0 -25004813.201 -3129547.626 4366747.484 10 0 59512 49500.00000 0 -25365538.992 -3069128.642 1202924.363 10 0 59512 50400.00000 0 -25333654.062 -2941093.043 -1984076.655 10 0 59512 51300.00000 0 -24904403.742 -2799292.470 -5132858.426 10 0 59512 52200.00000 0 -24085990.605 -2697548.930 -8182774.264 10 0 59512 53100.00000 0 -22899284.549 -2687165.159 -11075068.253 10 0 59512 54000.00000 0 -21377030.839 -2814543.309 -13753980.688 10 0 59512 54900.00000 0 -19562587.865 -3119010.116 -16167799.743 10 0 59512 55800.00000 0 -17508245.101 -3630938.417 -18269841.166 10 0 59512 56700.00000 0 -15273188.424 -4370243.338 -20019338.990 10 0 59512 57600.00000 0 -12921194.156 -5345316.721 -21382231.297 10 0 59512 58500.00000 0 -10518144.344 -6552446.045 -22331826.474 10 0 59512 59400.00000 0 -8129463.420 -7975744.944 -22849336.967 10 0 59512 60300.00000 0 -5817580.095 -9587601.911 -22924269.307 10 0 59512 61200.00000 0 -3639518.292 -11349632.726 -22554661.116 10 0 59512 62100.00000 0 -1644716.435 -13214101.356 -21747158.136 10 0 59512 63000.00000 0 126833.926 -15125754.376 -20516926.820 10 0 59512 63900.00000 0 1646051.332 -17023995.883 -18887400.890 10 0 59512 64800.00000 0 2895766.511 -18845314.777 -16889863.409 10 0 59512 65700.00000 0 3871219.048 -20525864.245 -14562869.306 10 0 59512 66600.00000 0 4580025.253 -22004085.393 -11951516.943 10 0 59512 67500.00000 0 5041616.451 -23223263.679 -9106580.963 10 0 59512 68400.00000 0 5286169.795 -24133908.208 -6083522.324 10 0 59512 69300.00000 0 5353076.114 -24695850.439 -2941394.945 10 0 59512 70200.00000 0 5289010.167 -24879970.147 258328.513 10 0 59512 71100.00000 0 5145686.716 -24669472.163 3452986.756 10 0 59512 72000.00000 0 4977400.336 -24060656.848 6579988.766 10 0 59512 72900.00000 0 4838456.899 -23063149.540 9578073.558 10 0 59512 73800.00000 0 4780609.781 -21699578.221 12388542.580 10 0 59512 74700.00000 0 4850613.565 -20004713.214 14956437.155 10 0 59512 75600.00000 0 5088002.647 -18024106.573 17231635.115 10 0 59512 76500.00000 0 5523191.689 -15812290.812 19169842.996 10 0 59512 77400.00000 0 6175980.114 -13430615.678 20733463.176 10 0 59512 78300.00000 0 7054524.475 -10944816.895 21892318.821 10 0 59512 79200.00000 0 8154821.561 -8422421.566 22624223.305 10 0 59512 80100.00000 0 9460722.453 -5930100.940 22915384.624 10 0 59512 81000.00000 0 10944474.716 -3531082.236 22760639.337 10 0 59512 81900.00000 0 12567767.354 -1282727.280 22163514.302 10 0 59512 82800.00000 0 14283231.972 765622.466 21136118.081 10 0 59512 83700.00000 0 16036335.002 2574447.421 19698867.194 10 0 59512 84600.00000 0 17767580.090 4115426.625 17880055.311 10 0 59512 85500.00000 0 19414927.644 5372336.637 15715276.175 99